Location: Glion
(46.4330°N, 6.9246°E)
Time: 17:48:45
(UTC+00:00)

USA 234 - Pass Details

Date: 03 March 2021
Orbit: 1102 x 1105 km, 123.0° (Epoch: 18 April)

Event Time Altitude Azimuth Distance (km) Brightness Sun altitude
Exits shadow 19:39:58 30° 54° (NE) 1,868 4.1 -24.4°
Maximum altitude 19:43:33 89° 141° (SE) 1,108 3.1 -25.0°
Drops below altitude 10° 19:50:06 10° 234° (SW) 2,956 5.9 -26.1°
Sets 19:52:34 0° 235° (SW) 3,912 6.6 -26.5°
